TimeCDT,TemperatureF,Dew PointF,Humidity,Sea Level PressureIn,VisibilityMPH,Wind Direction,Wind SpeedMPH,Gust SpeedMPH,PrecipitationIn,Events,Conditions,WindDirDegrees,DateUTC
12:56 AM,66.0,59.0,78,30.07,10.0,NE,3.5,-,N/A,,Scattered Clouds,40,2012-09-11 05:56:00
1:56 AM,63.0,59.0,87,30.07,10.0,Calm,Calm,-,N/A,,Scattered Clouds,0,2012-09-11 06:56:00
2:56 AM,64.9,59.0,81,30.07,10.0,Calm,Calm,-,N/A,,Scattered Clouds,0,2012-09-11 07:56:00
3:56 AM,63.0,59.0,87,30.07,10.0,Calm,Calm,-,N/A,,Scattered Clouds,0,2012-09-11 08:56:00
4:56 AM,64.9,59.0,81,30.09,10.0,NNE,4.6,-,N/A,,Scattered Clouds,30,2012-09-11 09:56:00
5:56 AM,64.0,59.0,84,30.10,10.0,NNE,3.5,-,N/A,,Partly Cloudy,30,2012-09-11 10:56:00
6:56 AM,64.0,59.0,84,30.12,10.0,NNE,4.6,-,N/A,,Partly Cloudy,30,2012-09-11 11:56:00
7:56 AM,69.1,62.1,78,30.14,10.0,ENE,6.9,-,N/A,,Scattered Clouds,60,2012-09-11 12:56:00
8:56 AM,75.0,62.1,64,30.15,10.0,ENE,4.6,-,N/A,,Scattered Clouds,60,2012-09-11 13:56:00
9:56 AM,79.0,63.0,58,30.17,10.0,East,6.9,-,N/A,,Scattered Clouds,100,2012-09-11 14:56:00
10:56 AM,82.0,63.0,52,30.17,10.0,East,5.8,-,N/A,,Scattered Clouds,80,2012-09-11 15:56:00
11:56 AM,84.9,60.1,43,30.15,10.0,East,8.1,17.3,N/A,,Mostly Cloudy,90,2012-09-11 16:56:00
12:56 PM,84.0,59.0,43,30.14,10.0,East,4.6,-,N/A,,Mostly Cloudy,100,2012-09-11 17:56:00
1:56 PM,86.0,57.9,38,30.12,10.0,South,8.1,-,N/A,,Mostly Cloudy,170,2012-09-11 18:56:00
2:56 PM,86.0,57.9,38,30.10,10.0,SE,6.9,-,N/A,,Mostly Cloudy,130,2012-09-11 19:56:00
3:56 PM,86.0,60.1,41,30.10,10.0,SE,6.9,-,N/A,,Mostly Cloudy,130,2012-09-11 20:56:00
4:56 PM,84.9,62.1,46,30.10,10.0,SE,6.9,-,N/A,,Mostly Cloudy,130,2012-09-11 21:56:00
5:56 PM,81.0,62.1,52,30.11,10.0,SSE,4.6,-,N/A,,Mostly Cloudy,150,2012-09-11 22:56:00
6:56 PM,79.0,64.9,62,30.12,10.0,SSE,5.8,-,N/A,,Mostly Cloudy,150,2012-09-11 23:56:00
7:56 PM,75.9,66.9,74,30.12,10.0,ENE,3.5,-,N/A,,Mostly Cloudy,60,2012-09-12 00:56:00
8:56 PM,75.9,64.9,69,30.13,10.0,NE,4.6,-,N/A,,Mostly Cloudy,40,2012-09-12 01:56:00
9:56 PM,73.9,62.1,66,30.14,10.0,NE,6.9,-,N/A,,Scattered Clouds,50,2012-09-12 02:56:00
10:56 PM,72.0,62.1,71,30.15,10.0,ENE,5.8,-,N/A,,Scattered Clouds,60,2012-09-12 03:56:00
11:56 PM,71.1,62.1,73,30.13,10.0,ENE,5.8,-,N/A,,Partly Cloudy,60,2012-09-12 04:56:00